User: anonymous   Login
Location: Caltech
(34.1382°N, 118.1253°W)
Time: 04:57:00
(UTC-07:00)
Language:

Cosmos 44 Rocket - Orbit

View from above orbital plane
View from above orbital plane
View from above satellite
View from above satellite

Ground track
Ground track

The orbit data is extracted from the following two-line orbital elements,

1 00877U 64053B   16236.54894809 -.00000077  00000-0  95420-5 0  9995
2 00877  65.0774  81.9762 0080074 235.8014 123.5478 14.59252279758082
Epoch (UTC): 23 August 2016 13:10:29
Eccentricity: 0.0080074
inclination: 65.0774°
perigee height: 639 km
apogee height: 752 km
right ascension of ascending node: 81.9762°
argument of perigee: 235.8014°
revolutions per day: 14.59252279
mean anomaly at epoch: 123.5478°
orbit number at epoch: 75808

The dashed part of the orbit path shows where the satellite is in the earth's shadow,  

DLR